Time,TemperatureF,DewpointF,PressureIn,WindDirection,WindDirectionDegrees,WindSpeedMPH,WindSpeedGustMPH,Humidity,HourlyPrecipIn,Conditions,Clouds,dailyrainin,SoftwareType,DateUTC
2013-04-22 00:03:00,79.0,-99.9,30.01,East,80,18.0,22.0,-999,-99.99,,,-99.99,,2013-04-22 04:03:00,
2013-04-22 00:13:00,79.0,-99.9,30.01,East,80,18.0,22.0,-999,-99.99,,,-99.99,,2013-04-22 04:13:00,
2013-04-22 00:23:00,79.0,-99.9,30.01,East,80,18.0,22.0,-999,-99.99,,,-99.99,,2013-04-22 04:23:00,
2013-04-22 00:33:00,79.0,-99.9,30.01,East,80,16.0,20.0,-999,-99.99,,,-99.99,,2013-04-22 04:33:00,
2013-04-22 00:43:00,79.0,-99.9,30.01,East,80,16.0,20.0,-999,-99.99,,,-99.99,,2013-04-22 04:43:00,
2013-04-22 00:53:00,79.0,-99.9,30.01,East,80,16.0,20.0,-999,-99.99,,,-99.99,,2013-04-22 04:53:00,
2013-04-22 01:03:00,79.0,-99.9,29.99,East,80,16.0,20.0,-999,-99.99,,,-99.99,,2013-04-22 05:03:00,
2013-04-22 01:12:00,79.0,-99.9,29.99,East,80,16.0,20.0,-999,-99.99,,,-99.99,,2013-04-22 05:12:00,
2013-04-22 01:23:00,79.0,-99.9,29.99,East,80,16.0,20.0,-999,-99.99,,,-99.99,,2013-04-22 05:23:00,
2013-04-22 01:33:00,78.0,-99.9,29.98,East,80,16.0,20.0,-999,-99.99,,,-99.99,,2013-04-22 05:33:00,
2013-04-22 01:42:00,78.0,-99.9,29.98,East,80,16.0,20.0,-999,-99.99,,,-99.99,,2013-04-22 05:42:00,
2013-04-22 01:52:00,78.0,-99.9,29.98,East,80,16.0,20.0,-999,-99.99,,,-99.99,,2013-04-22 05:52:00,
2013-04-22 02:02:00,78.0,-99.9,29.98,East,80,16.0,22.0,-999,-99.99,,,-99.99,,2013-04-22 06:02:00,
2013-04-22 02:12:00,78.0,-99.9,29.98,East,80,16.0,22.0,-999,-99.99,,,-99.99,,2013-04-22 06:12:00,
2013-04-22 02:22:00,78.0,-99.9,29.98,East,80,16.0,22.0,-999,-99.99,,,-99.99,,2013-04-22 06:22:00,
2013-04-22 02:32:00,78.0,-99.9,29.96,East,80,16.0,20.0,-999,-99.99,,,-99.99,,2013-04-22 06:32:00,
2013-04-22 02:42:00,78.0,-99.9,29.96,East,80,16.0,20.0,-999,-99.99,,,-99.99,,2013-04-22 06:42:00,
2013-04-22 02:52:00,78.0,-99.9,29.96,East,80,16.0,20.0,-999,-99.99,,,-99.99,,2013-04-22 06:52:00,
2013-04-22 03:00:00,78.0,-99.9,29.95,East,80,13.0,18.0,-999,-99.99,,,-99.99,,2013-04-22 07:00:00,
2013-04-22 03:01:00,78.0,-99.9,29.96,East,80,13.0,18.0,-999,-99.99,,,-99.99,,2013-04-22 07:01:00,
2013-04-22 03:12:00,78.0,-99.9,29.96,East,80,13.0,18.0,-999,-99.99,,,-99.99,,2013-04-22 07:12:00,
2013-04-22 03:22:00,78.0,-99.9,29.96,East,80,13.0,18.0,-999,-99.99,,,-99.99,,2013-04-22 07:22:00,
2013-04-22 03:32:00,78.0,-99.9,29.95,East,80,13.0,18.0,-999,-99.99,,,-99.99,,2013-04-22 07:32:00,
2013-04-22 03:42:00,78.0,-99.9,29.95,East,80,13.0,18.0,-999,-99.99,,,-99.99,,2013-04-22 07:42:00,
2013-04-22 03:52:00,78.0,-99.9,29.95,East,80,13.0,18.0,-999,-99.99,,,-99.99,,2013-04-22 07:52:00,
2013-04-22 04:32:00,77.0,-99.9,29.94,SE,130,7.0,9.0,-999,-99.99,,,-99.99,,2013-04-22 08:32:00,
2013-04-22 04:42:00,77.0,-99.9,29.94,SE,130,7.0,9.0,-999,-99.99,,,-99.99,,2013-04-22 08:42:00,
2013-04-22 04:53:00,77.0,-99.9,29.94,SE,130,7.0,9.0,-999,-99.99,,,-99.99,,2013-04-22 08:53:00,
2013-04-22 05:01:00,77.0,-99.9,29.94,ESE,120,9.0,11.0,-999,-99.99,,,-99.99,,2013-04-22 09:01:00,
2013-04-22 05:11:00,77.0,-99.9,29.94,ESE,120,9.0,11.0,-999,-99.99,,,-99.99,,2013-04-22 09:11:00,
2013-04-22 05:22:00,77.0,-99.9,29.94,ESE,120,9.0,11.0,-999,-99.99,,,-99.99,,2013-04-22 09:22:00,
2013-04-22 05:33:00,76.0,-99.9,29.95,SSE,150,4.0,9.0,-999,-99.99,,,-99.99,,2013-04-22 09:33:00,
2013-04-22 05:42:00,76.0,-99.9,29.95,SSE,150,4.0,9.0,-999,-99.99,,,-99.99,,2013-04-22 09:42:00,
2013-04-22 05:53:00,76.0,-99.9,29.95,SSE,150,4.0,9.0,-999,-99.99,,,-99.99,,2013-04-22 09:53:00,
2013-04-22 06:03:00,76.0,-99.9,29.96,South,180,4.0,7.0,-999,-99.99,,,-99.99,,2013-04-22 10:03:00,
2013-04-22 06:12:00,76.0,-99.9,29.96,South,180,4.0,7.0,-999,-99.99,,,-99.99,,2013-04-22 10:12:00,
2013-04-22 06:23:00,76.0,-99.9,29.96,South,180,4.0,7.0,-999,-99.99,,,-99.99,,2013-04-22 10:23:00,
2013-04-22 06:33:00,76.0,-99.9,29.97,South,180,4.0,7.0,-999,-99.99,,,-99.99,,2013-04-22 10:33:00,
2013-04-22 06:42:00,76.0,-99.9,29.97,South,180,4.0,7.0,-999,-99.99,,,-99.99,,2013-04-22 10:42:00,
2013-04-22 06:53:00,76.0,-99.9,29.97,South,180,4.0,7.0,-999,-99.99,,,-99.99,,2013-04-22 10:53:00,
2013-04-22 07:02:00,75.0,-99.9,29.98,South,190,4.0,7.0,-999,-99.99,,,-99.99,,2013-04-22 11:02:00,
2013-04-22 07:12:00,75.0,-99.9,29.98,South,190,4.0,7.0,-999,-99.99,,,-99.99,,2013-04-22 11:12:00,
2013-04-22 07:22:00,75.0,-99.9,29.98,South,190,4.0,7.0,-999,-99.99,,,-99.99,,2013-04-22 11:22:00,
2013-04-22 07:30:00,77.0,-99.9,29.99,SSE,150,4.0,4.0,-999,-99.99,,,-99.99,,2013-04-22 11:30:00,
2013-04-22 07:33:00,75.0,-99.9,29.99,SSW,200,4.0,9.0,-999,-99.99,,,-99.99,,2013-04-22 11:33:00,
2013-04-22 07:43:00,75.0,-99.9,29.99,SSW,200,4.0,9.0,-999,-99.99,,,-99.99,,2013-04-22 11:43:00,
2013-04-22 07:53:00,75.0,-99.9,29.99,SSW,200,4.0,9.0,-999,-99.99,,,-99.99,,2013-04-22 11:53:00,
2013-04-22 08:02:00,77.0,-99.9,29.99,SSE,150,4.0,4.0,-999,-99.99,,,-99.99,,2013-04-22 12:02:00,
2013-04-22 08:12:00,77.0,-99.9,29.99,SSE,150,4.0,4.0,-999,-99.99,,,-99.99,,2013-04-22 12:12:00,
2013-04-22 08:22:00,77.0,-99.9,29.99,SSE,150,4.0,4.0,-999,-99.99,,,-99.99,,2013-04-22 12:22:00,
2013-04-22 08:52:00,78.0,-99.9,30.00,ESE,110,7.0,11.0,-999,-99.99,,,-99.99,,2013-04-22 12:52:00,
2013-04-22 09:01:00,79.0,-99.9,30.00,East,90,13.0,18.0,-999,-99.99,,,-99.99,,2013-04-22 13:01:00,
2013-04-22 09:12:00,79.0,-99.9,30.00,East,90,13.0,18.0,-999,-99.99,,,-99.99,,2013-04-22 13:12:00,
2013-04-22 09:22:00,79.0,-99.9,30.00,East,90,13.0,18.0,-999,-99.99,,,-99.99,,2013-04-22 13:22:00,
2013-04-22 09:32:00,79.0,-99.9,30.00,East,80,13.0,18.0,-999,-99.99,,,-99.99,,2013-04-22 13:32:00,
2013-04-22 09:42:00,79.0,-99.9,30.00,East,80,13.0,18.0,-999,-99.99,,,-99.99,,2013-04-22 13:42:00,
2013-04-22 09:53:00,79.0,-99.9,30.00,East,80,13.0,18.0,-999,-99.99,,,-99.99,,2013-04-22 13:53:00,
2013-04-22 10:02:00,79.0,-99.9,30.01,East,90,16.0,20.0,-999,-99.99,,,-99.99,,2013-04-22 14:02:00,
2013-04-22 10:12:00,79.0,-99.9,30.01,East,90,16.0,20.0,-999,-99.99,,,-99.99,,2013-04-22 14:12:00,
2013-04-22 10:22:00,79.0,-99.9,30.01,East,90,16.0,20.0,-999,-99.99,,,-99.99,,2013-04-22 14:22:00,
2013-04-22 10:33:00,79.0,-99.9,30.01,East,80,16.0,18.0,-999,-99.99,,,-99.99,,2013-04-22 14:33:00,
2013-04-22 10:42:00,79.0,-99.9,30.01,East,80,16.0,18.0,-999,-99.99,,,-99.99,,2013-04-22 14:42:00,
2013-04-22 10:52:00,79.0,-99.9,30.01,East,80,16.0,18.0,-999,-99.99,,,-99.99,,2013-04-22 14:52:00,
2013-04-22 11:02:00,79.0,-99.9,30.01,East,80,13.0,18.0,-999,-99.99,,,-99.99,,2013-04-22 15:02:00,
2013-04-22 11:12:00,79.0,-99.9,30.01,East,80,13.0,18.0,-999,-99.99,,,-99.99,,2013-04-22 15:12:00,
2013-04-22 11:22:00,79.0,-99.9,30.01,East,80,13.0,18.0,-999,-99.99,,,-99.99,,2013-04-22 15:22:00,
2013-04-22 11:33:00,79.0,-99.9,30.01,ENE,70,13.0,18.0,-999,-99.99,,,-99.99,,2013-04-22 15:33:00,
2013-04-22 11:43:00,79.0,-99.9,30.01,ENE,70,13.0,18.0,-999,-99.99,,,-99.99,,2013-04-22 15:43:00,
2013-04-22 11:53:00,79.0,-99.9,30.01,ENE,70,13.0,18.0,-999,-99.99,,,-99.99,,2013-04-22 15:53:00,
2013-04-22 12:00:00,79.0,-99.9,29.99,ENE,70,16.0,18.0,-999,-99.99,,,-99.99,,2013-04-22 16:00:00,
2013-04-22 12:03:00,79.0,-99.9,30.00,ENE,70,16.0,18.0,-999,-99.99,,,-99.99,,2013-04-22 16:03:00,
2013-04-22 12:13:00,79.0,-99.9,30.00,ENE,70,16.0,18.0,-999,-99.99,,,-99.99,,2013-04-22 16:13:00,
2013-04-22 12:23:00,79.0,-99.9,30.00,ENE,70,16.0,18.0,-999,-99.99,,,-99.99,,2013-04-22 16:23:00,
2013-04-22 12:33:00,79.0,-99.9,29.99,ENE,70,16.0,18.0,-999,-99.99,,,-99.99,,2013-04-22 16:33:00,
2013-04-22 12:42:00,79.0,-99.9,29.99,ENE,70,16.0,18.0,-999,-99.99,,,-99.99,,2013-04-22 16:42:00,
2013-04-22 12:52:00,79.0,-99.9,29.99,ENE,70,16.0,18.0,-999,-99.99,,,-99.99,,2013-04-22 16:52:00,
2013-04-22 13:32:00,79.0,-99.9,29.97,ENE,70,13.0,18.0,-999,-99.99,,,-99.99,,2013-04-22 17:32:00,
2013-04-22 13:43:00,79.0,-99.9,29.97,ENE,70,13.0,18.0,-999,-99.99,,,-99.99,,2013-04-22 17:43:00,
2013-04-22 13:52:00,79.0,-99.9,29.97,ENE,70,13.0,18.0,-999,-99.99,,,-99.99,,2013-04-22 17:52:00,
2013-04-22 14:02:00,79.0,-99.9,29.96,ENE,70,16.0,20.0,-999,-99.99,,,-99.99,,2013-04-22 18:02:00,
2013-04-22 14:12:00,79.0,-99.9,29.96,ENE,70,16.0,20.0,-999,-99.99,,,-99.99,,2013-04-22 18:12:00,
2013-04-22 14:22:00,79.0,-99.9,29.96,ENE,70,16.0,20.0,-999,-99.99,,,-99.99,,2013-04-22 18:22:00,
2013-04-22 14:32:00,78.0,-99.9,29.95,ENE,60,13.0,18.0,-999,-99.99,,,-99.99,,2013-04-22 18:32:00,
2013-04-22 14:42:00,78.0,-99.9,29.95,ENE,60,13.0,18.0,-999,-99.99,,,-99.99,,2013-04-22 18:42:00,
2013-04-22 14:52:00,78.0,-99.9,29.95,ENE,60,13.0,18.0,-999,-99.99,,,-99.99,,2013-04-22 18:52:00,
2013-04-22 15:02:00,78.0,-99.9,29.94,ENE,60,16.0,18.0,-999,-99.99,,,-99.99,,2013-04-22 19:02:00,
2013-04-22 15:12:00,78.0,-99.9,29.94,ENE,60,16.0,18.0,-999,-99.99,,,-99.99,,2013-04-22 19:12:00,
2013-04-22 15:22:00,78.0,-99.9,29.94,ENE,60,16.0,18.0,-999,-99.99,,,-99.99,,2013-04-22 19:22:00,
2013-04-22 15:32:00,78.0,-99.9,29.93,NE,50,16.0,20.0,-999,-99.99,,,-99.99,,2013-04-22 19:32:00,
2013-04-22 15:42:00,78.0,-99.9,29.93,NE,50,16.0,20.0,-999,-99.99,,,-99.99,,2013-04-22 19:42:00,
2013-04-22 15:53:00,78.0,-99.9,29.93,NE,50,16.0,20.0,-999,-99.99,,,-99.99,,2013-04-22 19:53:00,
2013-04-22 16:02:00,78.0,-99.9,29.93,NE,50,13.0,18.0,-999,-99.99,,,-99.99,,2013-04-22 20:02:00,
2013-04-22 16:11:00,78.0,-99.9,29.93,NE,50,13.0,18.0,-999,-99.99,,,-99.99,,2013-04-22 20:11:00,
2013-04-22 16:22:00,78.0,-99.9,29.93,NE,50,13.0,18.0,-999,-99.99,,,-99.99,,2013-04-22 20:22:00,
2013-04-22 16:32:00,79.0,-99.9,29.92,ENE,70,16.0,18.0,-999,-99.99,,,-99.99,,2013-04-22 20:32:00,
2013-04-22 16:42:00,79.0,-99.9,29.92,ENE,70,16.0,18.0,-999,-99.99,,,-99.99,,2013-04-22 20:42:00,
2013-04-22 16:52:00,79.0,-99.9,29.92,ENE,70,16.0,18.0,-999,-99.99,,,-99.99,,2013-04-22 20:52:00,
2013-04-22 17:02:00,79.0,-99.9,29.92,ENE,70,16.0,18.0,-999,-99.99,,,-99.99,,2013-04-22 21:02:00,
2013-04-22 17:12:00,79.0,-99.9,29.92,ENE,70,16.0,18.0,-999,-99.99,,,-99.99,,2013-04-22 21:12:00,
2013-04-22 17:22:00,79.0,-99.9,29.92,ENE,70,16.0,18.0,-999,-99.99,,,-99.99,,2013-04-22 21:22:00,
2013-04-22 17:33:00,79.0,-99.9,29.92,East,80,16.0,20.0,-999,-99.99,,,-99.99,,2013-04-22 21:33:00,
2013-04-22 17:43:00,79.0,-99.9,29.92,East,80,16.0,20.0,-999,-99.99,,,-99.99,,2013-04-22 21:43:00,
2013-04-22 17:53:00,79.0,-99.9,29.92,East,80,16.0,20.0,-999,-99.99,,,-99.99,,2013-04-22 21:53:00,
2013-04-22 18:03:00,79.0,-99.9,29.92,ENE,70,16.0,20.0,-999,-99.99,,,-99.99,,2013-04-22 22:03:00,
2013-04-22 18:12:00,79.0,-99.9,29.92,ENE,70,16.0,20.0,-999,-99.99,,,-99.99,,2013-04-22 22:12:00,
2013-04-22 18:22:00,79.0,-99.9,29.92,ENE,70,16.0,20.0,-999,-99.99,,,-99.99,,2013-04-22 22:22:00,
2013-04-22 18:33:00,79.0,-99.9,29.93,East,80,16.0,18.0,-999,-99.99,,,-99.99,,2013-04-22 22:33:00,
2013-04-22 18:42:00,79.0,-99.9,29.93,East,80,16.0,18.0,-999,-99.99,,,-99.99,,2013-04-22 22:42:00,
2013-04-22 18:52:00,79.0,-99.9,29.93,East,80,16.0,18.0,-999,-99.99,,,-99.99,,2013-04-22 22:52:00,
2013-04-22 19:02:00,79.0,-99.9,29.93,East,80,16.0,20.0,-999,-99.99,,,-99.99,,2013-04-22 23:02:00,
2013-04-22 19:12:00,79.0,-99.9,29.93,East,80,16.0,20.0,-999,-99.99,,,-99.99,,2013-04-22 23:12:00,
2013-04-22 19:22:00,79.0,-99.9,29.93,East,80,16.0,20.0,-999,-99.99,,,-99.99,,2013-04-22 23:22:00,
2013-04-22 19:33:00,79.0,-99.9,29.94,East,80,16.0,20.0,-999,-99.99,,,-99.99,,2013-04-22 23:33:00,
2013-04-22 19:43:00,79.0,-99.9,29.94,East,80,16.0,20.0,-999,-99.99,,,-99.99,,2013-04-22 23:43:00,
2013-04-22 19:52:00,79.0,-99.9,29.94,East,80,16.0,20.0,-999,-99.99,,,-99.99,,2013-04-22 23:52:00,
2013-04-22 20:02:00,79.0,-99.9,29.95,East,80,18.0,22.0,-999,-99.99,,,-99.99,,2013-04-23 00:02:00,
2013-04-22 20:12:00,79.0,-99.9,29.95,East,80,18.0,22.0,-999,-99.99,,,-99.99,,2013-04-23 00:12:00,
2013-04-22 20:22:00,79.0,-99.9,29.95,East,80,18.0,22.0,-999,-99.99,,,-99.99,,2013-04-23 00:22:00,
2013-04-22 20:32:00,79.0,-99.9,29.96,East,80,18.0,20.0,-999,-99.99,,,-99.99,,2013-04-23 00:32:00,
2013-04-22 20:52:00,79.0,-99.9,29.96,East,80,18.0,20.0,-999,-99.99,,,-99.99,,2013-04-23 00:52:00,
2013-04-22 21:01:00,79.0,-99.9,29.97,East,80,18.0,22.0,-999,-99.99,,,-99.99,,2013-04-23 01:01:00,
2013-04-22 21:11:00,79.0,-99.9,29.97,East,80,18.0,22.0,-999,-99.99,,,-99.99,,2013-04-23 01:11:00,
2013-04-22 21:22:00,79.0,-99.9,29.97,East,80,18.0,22.0,-999,-99.99,,,-99.99,,2013-04-23 01:22:00,
2013-04-22 21:32:00,79.0,-99.9,29.98,East,80,16.0,20.0,-999,-99.99,,,-99.99,,2013-04-23 01:32:00,
2013-04-22 21:42:00,79.0,-99.9,29.98,East,80,16.0,20.0,-999,-99.99,,,-99.99,,2013-04-23 01:42:00,
2013-04-22 21:52:00,79.0,-99.9,29.98,East,80,16.0,20.0,-999,-99.99,,,-99.99,,2013-04-23 01:52:00,
2013-04-22 22:02:00,79.0,-99.9,29.98,East,90,18.0,20.0,-999,-99.99,,,-99.99,,2013-04-23 02:02:00,
2013-04-22 22:12:00,79.0,-99.9,29.98,East,90,18.0,20.0,-999,-99.99,,,-99.99,,2013-04-23 02:12:00,
2013-04-22 22:22:00,79.0,-99.9,29.98,East,90,18.0,20.0,-999,-99.99,,,-99.99,,2013-04-23 02:22:00,
2013-04-22 22:33:00,78.0,-99.9,29.98,East,80,18.0,20.0,-999,-99.99,,,-99.99,,2013-04-23 02:33:00,
2013-04-22 22:42:00,78.0,-99.9,29.98,East,80,18.0,20.0,-999,-99.99,,,-99.99,,2013-04-23 02:42:00,
2013-04-22 22:52:00,78.0,-99.9,29.98,East,80,18.0,20.0,-999,-99.99,,,-99.99,,2013-04-23 02:52:00,
2013-04-22 23:00:00,78.0,-99.9,29.98,East,80,16.0,20.0,-999,-99.99,,,-99.99,,2013-04-23 03:00:00,
2013-04-22 23:02:00,78.0,-99.9,29.98,East,80,18.0,22.0,-999,-99.99,,,-99.99,,2013-04-23 03:02:00,
2013-04-22 23:11:00,78.0,-99.9,29.98,East,80,18.0,22.0,-999,-99.99,,,-99.99,,2013-04-23 03:11:00,
2013-04-22 23:22:00,78.0,-99.9,29.98,East,80,18.0,22.0,-999,-99.99,,,-99.99,,2013-04-23 03:22:00,
2013-04-22 23:33:00,78.0,-99.9,29.98,East,80,16.0,20.0,-999,-99.99,,,-99.99,,2013-04-23 03:33:00,
2013-04-22 23:43:00,78.0,-99.9,29.98,East,80,16.0,20.0,-999,-99.99,,,-99.99,,2013-04-23 03:43:00,
2013-04-22 23:53:00,78.0,-99.9,29.98,East,80,16.0,20.0,-999,-99.99,,,-99.99,,2013-04-23 03:53:00,